Weather in Plotava

Russia / Kursk Oblast     51°32′07″N   35°54′44″E
temp.,
°C
wind,
m/s
gust,
m/s
humid.,
%
clouds,
%
prec.,
mm/h
press.,
hPa
HPBL,
m
28 september, tue
tue2800:00+8n4990100 0.1 1022419
03:00+7n3795100 0.2 1022207
06:00+8n3792100 0.0 1023371
09:00+8nne4789100 0.1 1024487
12:00+9ne4787100 0.4 1025520
15:00+9ne467290 0.5 1026801
18:00+8ne5875100 0.1 1028520
21:00+7ene488396 0.1 1030545
29 september, wed
wed2900:00+7ene4883100 0.0 1031537
03:00+6ne4782100 0.0 1032441
06:00+6ne4877100 0.0 1033451
09:00+6ene58650 0.0 1034588
12:00+10ene56485 0.0 10331194
15:00+12ne45415 0.0 10321356
18:00+8ne35550 0.0 103383
21:00+6ene34665 0.0 103463
30 september, thu
thu3000:00+4ene2272100 0.0 103437
03:00+4ene227380 0.0 103423
06:00+3ene22785 0.0 103524
09:00+7ene34625 0.0 1035271
12:00+11e34465 0.0 10351032
15:00+13ene23425 0.0 10341331
18:00+9ene22565 0.0 103417
21:00+7e22655 0.0 103520
1 october, fri
fri100:00+6ese22710 0.0 103616
03:00+5ese22730 0.0 103610
06:00+4ese12760 0.0 103610
09:00+8ese22610 0.0 1036206
12:00+12ese22470 0.0 10361022
15:00+14ese12423 0.0 10351351
18:00+11e22552 0.0 103411
21:00+8ese22630 0.0 103519
2 october, sat
sat200:00+7se22670 0.0 103521
03:00+6se22680 0.0 103514
06:00+5se22715 0.0 103514
09:00+9se24585 0.0 1034214
12:00+14sse34455 0.0 10331040
15:00+15sse34435 0.0 10321380
18:00+12se33575 0.0 103222
21:00+9se336416 0.0 103237